NOAA 1 1 04793U 70106A 25347.66023347 -.00000046 00000+0 -21775-4 0 9996 2 04793 101.3658 25.2777 0031339 350.9857 120.2660 12.54047479517435 NOAA 2 (ITOS-D) 1 06235U 72082A 25347.69293207 -.00000026 00000+0 13086-3 0 9993 2 06235 102.0194 359.1600 0004168 163.2865 312.2569 12.53208412431711 NOAA 3 1 06920U 73086A 25347.62652139 -.00000021 00000+0 18729-3 0 9999 2 06920 102.2910 354.7787 0006445 106.7140 6.7692 12.40388901358892 NOAA 4 1 07529U 74089A 25347.67122834 -.00000019 00000+0 17125-3 0 9994 2 07529 102.0069 353.4953 0009025 189.8926 282.6568 12.53199292336286 NOAA 5 1 09057U 76077A 25347.61744946 -.00000009 00000+0 28363-3 0 9994 2 09057 102.2830 327.7320 0009940 320.3755 154.1880 12.37825271231517 TIROS N 1 11060U 78096A 25347.66495370 .00000260 00000+0 14344-3 0 9995 2 11060 98.4707 11.9796 0011356 63.4834 296.7506 14.19292098652432 NOAA 6 1 11416U 79057A 25347.67230718 .00000488 00000+0 18550-3 0 9997 2 11416 98.5837 13.3176 0010938 88.8929 271.3510 14.35354893424342 NOAA 7 1 12553U 81059A 25347.63248705 .00000095 00000+0 68160-4 0 9993 2 12553 98.8224 51.3376 0012451 80.5099 279.7482 14.17752857298454 NOAA 8 1 13923U 83022A 25347.61619302 .00000240 00000+0 11081-3 0 9991 2 13923 98.7372 355.1448 0015833 82.2567 278.0412 14.29724449224554 NOAA 9 1 15427U 84123A 25347.65263986 .00000179 00000+0 11209-3 0 9995 2 15427 99.1152 4.8450 0015092 152.4620 316.6899 14.17003504117147 NOAA 10 1 16969U 86073A 25347.57752331 .00000243 00000+0 11327-3 0 9994 2 16969 98.6911 336.2043 0012097 174.2519 295.9522 14.29100685 42901 NOAA 11 1 19531U 88089A 25347.56823816 .00000111 00000+0 77977-4 0 9995 2 19531 98.5975 294.5753 0012075 108.8634 251.3851 14.15797394921214 NOAA 12 1 21263U 91032A 25347.63176532 .00000193 00000+0 97916-4 0 9991 2 21263 98.6050 334.0412 0013101 206.4158 153.6356 14.26683596798501 NOAA 13 1 22739U 93050A 25347.58114366 .00000204 00000+0 13083-3 0 9998 2 22739 98.6817 292.7908 0008600 303.5498 56.4853 14.13602503667158 NOAA 14 1 23455U 94089A 25347.60476103 .00000130 00000+0 89279-4 0 9999 2 23455 98.4885 320.9880 0008362 255.7008 104.3238 14.14632831596968 NOAA 15 1 25338U 98030A 25347.67063801 .00000215 00000+0 10586-3 0 9993 2 25338 98.5221 8.1847 0010525 165.3472 194.8016 14.27071278434839 NOAA 16 1 26536U 00055A 25347.68686933 .00000151 00000+0 10128-3 0 9993 2 26536 98.4748 6.6648 0011462 112.1424 248.0968 14.13868853597514 NOAA 17 1 27453U 02032A 25347.66222856 .00000342 00000+0 16184-3 0 9997 2 27453 98.8400 306.4647 0011819 164.3376 195.8171 14.26132521220544 NOAA 18 1 28654U 05018A 25347.69055411 .00000214 00000+0 13663-3 0 9999 2 28654 98.8294 64.9401 0013489 321.2120 38.8084 14.13682490 60103 NOAA 19 1 33591U 09005A 25347.65670142 .00000079 00000+0 65843-4 0 9992 2 33591 98.9768 53.2114 0013649 191.2880 168.7988 14.13436405868277 SUOMI NPP 1 37849U 11061A 25347.68045088 .00000145 00000+0 89887-4 0 9993 2 37849 98.7774 285.0135 0002274 118.5876 241.5529 14.19514532732128 NOAA 20 (JPSS-1) 1 43013U 17073A 25347.69525668 .00000135 00000+0 84767-4 0 9991 2 43013 98.7599 283.9815 0002139 86.0085 274.1335 14.19526035418158 NOAA 21 (JPSS-2) 1 54234U 22150A 25347.65986128 .00000160 00000+0 96959-4 0 9992 2 54234 98.7462 283.9566 0002190 36.4289 323.7035 14.19524674160226